Flag for Germany Weather past 2 weeks in Itzehoe, Schleswig-Holstein, Germany

Now
54 °F

Scattered clouds.


Feels Like: 52 °F
Forecast: 50 / 63 °F
Wind: 7 mph from South

Location: Hohn

Current Time: Aug 20, 2014 at 9:25:09 AM

Latest Report: Aug 20, 2014 at 8:20 AM


Visibility: N/A

Pressure: 29.77 "Hg

Humidity: 88%

Dew point: 50 °F

Location of ItzehoeLocation

Historic Weather in Itzehoe — Graph

°F

Itzehoe temperature yesterday

Maximum temperature yesterday: 61 °F (at 4:20 PM)
Minimum temperature yesterday: 50 °F (at 3:20 AM)
Average temperature yesterday: 55 °F

Past Weeks' High & Low Weather Summary

 TemperatureHumidityPressure
High77 °F (Aug 6, 4:20 PM)100% (Aug 8, 3:20 AM)30.07 "Hg (Aug 8, 3:20 AM)
Low48 °F (Aug 6, 3:20 AM)34% (Aug 6, 5:20 PM)29.42 "Hg (Aug 18, 9:20 AM)
Average62 °F76%29.77 "Hg
* Reported Aug 5 7:03 AM — Aug 20 7:20 AM, Itzehoe, Weather by CustomWeather, © 2014

Note: Actual official high and low records may vary slightly from our data, if they occured in-between our weather recording intervals... More about our weather records

Advertising

Itzehoe weather history for previous 24 hours

 ConditionsComfort  
Time TempWeatherWind HumidityBarometerVisibility
7:20 AM
Aug 20
52 °FScattered clouds.7 mph88%29.74 "HgN/A
6:20 AM52 °FPassing clouds.7 mph88%29.74 "Hg5 mi
5:58 AM52 °FSprinkles. Passing clouds.8 mph94%29.74 "Hg3 mi
5:20 AM52 °FSprinkles. Passing clouds.8 mph88%29.74 "Hg4 mi
4:20 AM52 °FCool.8 mph88%29.74 "Hg2 mi
3:20 AM52 °FCool.12 mph88%29.74 "Hg2 mi
2:20 AM52 °FCool.7 mph88%29.71 "Hg4 mi
1:20 AM52 °FCool.6 mph88%29.71 "Hg5 mi
12:20 AM54 °FCool.8 mph88%29.71 "Hg4 mi
11:20 PM
Aug 19
52 °FCool.8 mph94%29.71 "Hg4 mi
10:20 PM52 °FCool.8 mph94%29.71 "Hg5 mi
9:20 PM54 °FCool.7 mph88%29.68 "Hg4 mi
8:20 PM54 °FCool.7 mph88%29.68 "Hg6 mi
7:20 PM57 °FCool.7 mph67%29.68 "Hg5 mi
6:20 PM57 °FCool.8 mph72%29.68 "Hg6 mi
5:20 PM59 °FCool.16 mph72%29.68 "Hg5 mi
5:00 PM59 °FScattered clouds.15 mph68%29.68 "HgN/A
4:20 PM61 °FScattered clouds.13 mph68%29.68 "HgN/A
3:20 PM55 °FScattered clouds.7 mph82%29.68 "HgN/A
2:20 PM55 °FScattered clouds.20 mph82%29.68 "HgN/A
1:20 PM59 °FScattered clouds.13 mph77%29.68 "HgN/A
12:20 PM59 °FScattered clouds.10 mph68%29.68 "HgN/A
11:20 AM57 °FScattered clouds.10 mph82%29.68 "HgN/A
10:20 AM57 °FScattered clouds.8 mph82%29.68 "HgN/A
9:20 AM55 °FSprinkles. Scattered clouds.12 mph88%29.65 "Hg6 mi
Weather by CustomWeather, © 2014

See weather overviewHow to use our weather pages